Regional Weather Roundup
Issued by NWS

Home | Current Version | Previous Version | Graphics & Text | Print | Product List | Glossary On
Versions: 1 2 3 4 5 6 7 8 9 10 11 12 13 14 15 16 17 18 19 20 21 22 23 24 25 26 27 28 29 30 31 32 33 34 35 36 37 38 39 40 41 42 43 44 45 46 47 48 49 50
000
ASUS43 KMKX 051011
RWRWI

WISCONSIN REGIONAL WEATHER ROUNDUP
NATIONAL WEATHER SERVICE MILWAUKEE/SULLIVAN WI
500 AM CDT SAT SEP 05 2015

NOTE: "FAIR" INDICATES FEW OR NO CLOUDS BELOW 12,000 FEET WITH NO
SIGNIFICANT WEATHER AND/OR OBSTRUCTIONS TO VISIBILITY.

WIZ001-002-006>008-014>016-023>028-051100-
NORTHWEST WISCONSIN

CITY           SKY/WX    TMP DP  RH WIND       PRES   REMARKS
SUPERIOR ARPT  CLOUDY    60  58  92 SE6       30.00R
ASHLAND        MOCLDY    69  68  96 S7        30.00S
HAYWARD        CLEAR     68  65  90 VRB3      30.02R
SIREN          PTCLDY    70  68  93 SE6       29.98S
CUMBERLAND     MOCLDY    66  64  94 SE5       30.01R FOG
RICE LAKE      MOCLDY    68  65  89 SE7       30.02S
CHETEK         PTCLDY    68  66  95 E9        30.01S
LADYSMITH      CLEAR     67  65  93 SE6       30.05S
EAU CLAIRE     CLOUDY    70  67  90 SE3       29.99S
MENOMONIE      MOCLDY    71  70  96 CALM      30.00R FOG
NEW RICHMOND   MOCLDY    72  71  97 SE5       29.98R
OSCEOLA        CLEAR     73  73 100 SE7       29.99S
$$

WIZ003>005-009-010-017-018-051100-
NORTH CENTRAL WISCONSIN

CITY           SKY/WX    TMP DP  RH WIND       PRES   REMARKS
MANITOWISH WTR CLOUDY    65  65 100 S5        30.08R
ARBOR VITAE    CLOUDY    66  64  94 SE6       30.07S
WOODRUFF       CLOUDY    66  64  94 SE6       30.07S
RHINELANDER    CLOUDY    65  64  97 CALM      30.09S FOG
EAGLE RIVER    CLOUDY    64  64 100 CALM      30.08R
LAND O LAKES   CLOUDY    65  64  97 CALM      30.09R FOG
PHILLIPS       PTCLDY    65  65  99 S6        30.05R FOG
TOMAHAWK       CLOUDY    65  64  95 CALM      30.07F FOG
MEDFORD        CLEAR     65  65 100 SE6       30.07R FOG
MERRILL        CLOUDY    67  67 100 CALM      30.08R FOG
$$

WIZ029-030-035-036-043>047-051100-
CENTRAL WISCONSIN

CITY           SKY/WX    TMP DP  RH WIND       PRES   REMARKS
WAUSAU         CLOUDY    67  65  93 S3        30.06R FOG
MOSINEE        CLOUDY    64  64 100 CALM      30.09R FOG
MARSHFIELD     CLOUDY    68  63  84 SE5       30.06S HAZE
STEVENS POINT  CLOUDY    64  64  99 CALM      30.08R FOG
WAUPACA        CLOUDY    68  67  98 CALM      30.08R FOG
WAUTOMA        PTCLDY    64  64 100 CALM      30.07S
WISC RAPIDS    PTCLDY    66  63  90 E3        30.07S
CAMP DOUGLAS   CLOUDY    68  68 100 E5        30.05S
$$

WIZ011>013-019>022-031-037>040-048>050-051100-
NORTHEAST WISCONSIN

CITY           SKY/WX    TMP DP  RH WIND       PRES   REMARKS
ANTIGO         CLOUDY    64  64 100 CALM      30.09S FOG
SHAWANO        NOT AVBL
OCONTO         CLOUDY    58  58 100 CALM      30.08R
STURGEON BAY   CLOUDY    64  61  88 W3        30.10R VSB 1/4
GREEN BAY      FOG       62  61  96 E3        30.08S VSB 1/4
MANITOWOC      FOG       63  62  97 MISG      30.08S VSB 3/4
APPLETON       CLOUDY    66  64  94 CALM      30.06S
CLINTONVILLE   CLOUDY    63  63 100 CALM      30.08R FOG
OSHKOSH        CLOUDY    66  64  93 CALM      30.07R
$$

WIZ032>034-041-042-053>061-051100-
SOUTHWEST WISCONSIN

CITY           SKY/WX    TMP DP  RH WIND       PRES   REMARKS
LA CROSSE      LGT RAIN  74  72  93 SE5       30.00S
SPARTA         CLOUDY    69  68  94 E5        30.03F
VIROQUA        CLOUDY    72  72 100 SE9       30.05F
BOSCOBEL       LGT RAIN  73  72  96 NE3       30.04S FOG
PRAIRIE DU CHI CLOUDY    73  70  92 SE3       30.02S
PLATTEVILLE    CLOUDY    72  72  99 E8        30.05S
$$

WIZ056-057-062-063-064-067-068-051100-
SOUTH CENTRAL WISCONSIN

CITY           SKY/WX    TMP DP  RH WIND       PRES   REMARKS
REEDSBURG      CLEAR     67  67  99 CALM      30.06S FOG
BARABOO/DELLS  CLEAR     66  64  92 CALM      30.06S FOG
LONE ROCK      CLOUDY    70  68  93 CALM      30.07R
MINERAL POINT  LGT RAIN  72  70  94 CALM      30.08R
MADISON        CLEAR     66  64  93 CALM      30.05S
MIDDLETON      CLEAR     68  67  96 CALM      30.07R
WATERTOWN      FOG       65  65 100 CALM      30.06S VSB 3/4
MONROE         MOCLDY    68  66  94 CALM      30.06R FOG
JANESVILLE     PTCLDY    66  64  94 SE5       30.05S FOG
$$

WIZ051-052-058>065-066-070>072-051100-
SOUTHEAST WISCONSIN

CITY           SKY/WX    TMP DP  RH WIND       PRES   REMARKS
MILWAUKEE      FOG       66  65  96 E3        30.07R VSB 1/4
WAUKESHA         N/A     63  63 100 E3        30.09R FOG
MILWAUKEE/TIMM CLOUDY    66  63  88 E3        30.08R FOG
RACINE         CLOUDY    68  65  90 E3        30.09R
BURLINGTON     FOG       63  62  98 CALM      30.08R VSB 3/4
KENOSHA        PTCLDY    66  64  93 CALM      30.08R FOG
FOND DU LAC    MOCLDY    65  64  97 CALM      30.07S
SHEBOYGAN      FOG       65  64  97 CALM      30.07S VSB 3/4
WEST BEND      FOG       63  63 100 CALM      30.08R VSB 1/4
JUNEAU         PTCLDY    64  63  97 CALM      30.08R FOG
$$

LSZ147-162-051100-
LAKE SUPERIOR

STATION/POSITION TIME  TEMP    WIND        PRES    WAVE
                       AIR SEA DIR/SP/G            HT/PER
                 (UTC) (F)     (DEG/KT/KT) (MB)    (FT/S)
W MID LAKE BUOY  0950   61 57  280/  6/ 10 1016.9R   1/ 3
DEVILS ISLAND    1000   63     100/  4/  6 1016.5R
PORT WING        0940   57     300/  3/ 23 1016.6R
SAXON HARBOR     0900   73     190/  6/ 11 1014.9
$$

LMZ867-665-643>646-051100-
LAKE MICHIGAN

STATION/POSITION TIME  TEMP    WIND        PRES    WAVE
                       AIR SEA DIR/SP/G            HT/PER
                 (UTC) (F)     (DEG/KT/KT) (MB)    (FT/S)
CHAMBERS ISLAND  0900   64      CALM  /  1 1017.9S
S GREEN BAY BUOY 1000   66 67   40/  2/  2 1019.8R
N MID LAKE BUOY  0950   68 67  190/  6/  8 1017.5R   0
NORTHPORT PIER   0900   67      CALM  /  1 1017.9R
SISTER BAY       0911   66        CALM       N/A
ALGOMA LAKESHORE 0914             CALM       N/A
KEWAUNEE LAKESHO 0900   60        CALM     1017.2R
SHEBOYGAN LAKESH 1000   61      90/  2/  3 1018.5F
PORT WASHINGTON  0900   61      CALM  /  2 1018.6S
ATWATER BUOY     1000   59 58  290/  2/  4 1019.9R
MILWAUKEE LAKESH 0910   60      40/  7/  7   N/A
S MID LAKE BUOY  0950   69 71   90/  4/  4 1017.9R   0
KENOSHA   LAKESH 1000   64        CALM     1017.9S
$$

TC  - TEMPERATURE IN CELSIUS
VSB - VISIBILITY IN STATUTE MILES
WCI - WIND CHILL INDEX
HX  - HEAT INDEX




USA.gov is the U.S. government's official web portal to all federal, state and local government web resources and services.